Springfield, CO

10:03 AM MDT on July 28, 2016 (GMT -0600)
Springfield

Weather History for KSPD - March, 2013

Change the Weather History Date:

Sunday, March 10, 2013

  Actual Average Record
Temperature  
Mean Temperature 27 °F -  
Max Temperature 33 °F 56 °F 75 °F (2014)
Min Temperature 20 °F 26 °F 19 °F (2009)
Degree Days  
Heating Degree Days 38 24  
Month to date heating degree days 214 251  
Since 1 July heating degree days 3991 4257  
Cooling Degree Days 0 0  
Month to date cooling degree days 0 0  
Year to date cooling degree days 0 0  
Moisture  
Dew Point 18 °F    
Average Humidity 73    
Maximum Humidity 92    
Minimum Humidity 54    
Precipitation  
Precipitation 0.00 in 0.03 in 0.13 in (2012)
Month to date precipitation 0.07 0.28  
Year to date precipitation 0.20 1.09  
Sea Level Pressure  
Sea Level Pressure 30.07 in    
Wind  
Wind Speed 23 mph (North)    
Max Wind Speed 46 mph    
Max Gust Speed 55 mph    
T = Trace of Precipitation, MM = Missing Value Source: NWS Daily Summary

Daily Weather History Graph

Daily Weather History Graph

Search for Another Location

Airport or City:

Trip Planner

Search our weather history database for the weather conditions in past years. The results will help you decide how hot, cold, wet, or windy it might be!

Date:

Astronomy

Mar. 10, 2013 Rise Set
Actual Time 7:08 AM MDT 6:53 PM MDT
Civil Twilight 6:42 AM MDT 7:19 PM MDT
Nautical Twilight 6:12 AM MDT 7:49 PM MDT
Astronomical Twilight 5:41 AM MDT 8:20 PM MDT
Moon 6:08 AM MDT (3/10) 6:03 PM MDT (3/10)
Length of Visible Light 12h 36m
Length of Day
11h 45m
Waning Crescent, 1% of the Moon is Illuminated
Mar 10
Waning Crescent
Mar 11
New
Mar 19
First Quarter
Mar 27
Full
Apr 2
Last Quarter

Hourly Weather History & Observations

Time (MDT) Temp. Windchill Dew Point Humidity Pressure Visibility Wind Dir Wind Speed Gust Speed Precip Events Conditions
12:56 AM 27.0 °F 8.2 °F 25.0 °F 92% 29.89 in - North 43.7 mph 54.1 mph N/A   Unknown
1:56 AM 24.1 °F 5.9 °F 21.9 °F 91% 29.94 in - North 34.5 mph 42.6 mph N/A   Unknown
3:56 AM 24.1 °F 6.4 °F 19.9 °F 84% 29.98 in - North 32.2 mph 38.0 mph N/A   Unknown
4:56 AM 23.0 °F 5.7 °F 18.0 °F 81% 30.02 in - North 28.8 mph 36.8 mph N/A   Unknown
5:56 AM 21.9 °F 4.5 °F 17.1 °F 82% 30.05 in - North 27.6 mph - N/A   Unknown
6:56 AM 21.9 °F 4.5 °F 17.1 °F 82% 30.06 in - North 27.6 mph - N/A   Unknown
7:56 AM 21.9 °F 6.5 °F 17.1 °F 82% 30.09 in - North 20.7 mph - N/A   Unknown
8:56 AM 25.0 °F 10.9 °F 18.0 °F 75% 30.10 in - North 19.6 mph - N/A   Unknown
9:56 AM 27.0 °F 12.8 °F 21.0 °F 78% 30.11 in - North 21.9 mph - N/A   Unknown
10:56 AM 28.0 °F 11.3 °F 19.0 °F 69% 30.11 in - North 34.5 mph 41.4 mph N/A   Unknown
11:56 AM 28.0 °F 11.8 °F 19.0 °F 69% 30.12 in - North 32.2 mph 40.3 mph N/A   Unknown
12:56 PM 28.9 °F 13.2 °F 19.0 °F 67% 30.11 in - North 31.1 mph 39.1 mph N/A   Unknown
1:56 PM 30.0 °F 14.9 °F 19.9 °F 66% 30.08 in - North 29.9 mph 36.8 mph N/A   Unknown
2:56 PM 30.0 °F 16.0 °F 19.0 °F 64% 30.09 in - North 25.3 mph 35.7 mph N/A   Unknown
3:56 PM 33.1 °F 20.1 °F 21.0 °F 61% 30.06 in - North 25.3 mph 34.5 mph N/A   Unknown
4:56 PM 33.1 °F 19.8 °F 19.0 °F 56% 30.06 in - North 26.5 mph 33.4 mph N/A   Unknown
5:56 PM 32.0 °F 19.8 °F 18.0 °F 56% 30.06 in - North 20.7 mph 27.6 mph N/A   Unknown
6:56 PM 28.0 °F 18.6 °F 18.0 °F 66% 30.10 in - North 10.4 mph - N/A   Unknown
7:56 PM 23.0 °F 12.4 °F 17.1 °F 78% 30.14 in - NNW 10.4 mph - N/A   Unknown
8:56 PM 21.9 °F 12.5 °F 15.1 °F 75% 30.14 in - NW 8.1 mph - N/A   Unknown
9:56 PM 21.0 °F 10.6 °F 15.1 °F 78% 30.14 in - NW 9.2 mph - N/A   Unknown
10:56 PM 21.9 °F 11.0 °F 14.0 °F 72% 30.14 in - WNW 10.4 mph - N/A   Unknown
11:56 PM 21.9 °F 10.4 °F 15.1 °F 75% 30.09 in - NW 11.5 mph - N/A   Unknown
12:56 AM 24.1 °F 15.2 °F 16.0 °F 71% 30.08 in - NW 8.1 mph - N/A   Unknown